COSMOS 2272

导读

COSMOS 2272(宇宙2272)是独联体(CIS)继承自苏联“宇宙”号卫星系列的军用卫星,于1994年2月12日发射入轨。“宇宙”号卫星是世界上规模最大的卫星系列,涵盖各类军用、科学与试验任务,多数为保密的军事用途。该系列包含侦察、通信、预警等多种军用卫星,也承担空间技术试验任务,COSMOS 2272延续了这一任务定位,服务于独联体航天与国防需求。

基本信息
目录编号:
23003
目录名称:
COSMOS 2272
国际标识:
1994-011E
轨道中心:
EARTH
卫星名称:
COSMOS 2272
卫星全名:
--
卫星状态:
在轨 (已飞行11902 天)
发射日期:
1994-02-12 UTC
国别 :
俄罗斯(独联体) (CIS)
星等 :
--
该卫星已列入 空间交会检测服务 Space Conjunction Data Service (SCDS) ,当前飞行风险评估等级: 无高风险
轨道信息
数据来源 国际轨道数据 AOE轨道数据
星历时间 2026-09-14T06:41:35+0800
7小时前
查看轨道信息
2026-09-11T10:00:00+0800
3天前
查看轨道信息
半长轴 7782.964km 7782.968km
偏心率 0.0010854 0.0011681
轨道倾角 82.569° 82.570°
近地点辐角 318.906° 330.366°
升交点赤经 234.406° 236.237°
平近点角 41.122° 327.803°
近地点 1396.379km 1395.739km
远地点 1413.275km 1413.923km
周期 113.888分钟 113.888分钟
每日圈数 12.644023 12.644013
详细信息
使用方式:
暂无
2D轨道图
3D轨道图
轨道高度分析图
轨道倾角分析图
轨道综合分析图
查看轨道综合分析图
与全量物体交会距离演化趋势 订阅飞行安全评估服务
与全量物体交会风险概率演化趋势 订阅飞行安全评估服务